FFT1650 KLAS-KDFW

Flight info

Callsign FFT1650
Flight time N/A
Altitude 35000
Route NIITZ4 SSKEE GUP J72 TXO TURKI JOVEM6
Aircraft A321/M-SDE2E3GIRW/EB1

Departure

Time 2026-05-06 17:45
Airport Harry Reid International Airport (KLAS)

Arrival

Time N/A
Airport Dallas Fort Worth International Airport (KDFW)
Time Latitude Longitude Altitude Speed Heading
2026-05-06 16:49 36.08293 -115.13467 2091 ft 0 kts 275°
2026-05-06 17:27 36.08292 -115.13436 2089 ft 4 kts 268°
2026-05-06 17:27 36.08295 -115.13404 2087 ft 4 kts 253°
2026-05-06 17:28 36.08306 -115.13376 2086 ft 4 kts 213°
2026-05-06 17:28 36.08320 -115.13370 2086 ft 1 kts 181°
2026-05-06 17:28 36.08322 -115.13370 2086 ft 1 kts 181°
2026-05-06 17:31 36.08320 -115.13370 2086 ft 1 kts 181°
2026-05-06 17:31 36.08311 -115.13370 2086 ft 0 kts 181°
2026-05-06 17:33 36.08266 -115.13371 2085 ft 7 kts 181°
2026-05-06 17:33 36.08217 -115.13371 2085 ft 14 kts 179°
2026-05-06 17:34 36.08156 -115.13371 2084 ft 0 kts 179°
2026-05-06 17:35 36.08153 -115.13371 2084 ft 0 kts 179°
2026-05-06 17:37 36.08151 -115.13371 2084 ft 0 kts 179°
2026-05-06 17:37 36.08058 -115.13370 2083 ft 21 kts 179°
2026-05-06 17:37 36.07916 -115.13367 2081 ft 15 kts 179°
2026-05-06 17:37 36.07882 -115.13366 2082 ft 0 kts 179°
2026-05-06 17:38 36.07856 -115.13360 2081 ft 8 kts 157°
2026-05-06 17:38 36.07827 -115.13255 2071 ft 18 kts 91°
2026-05-06 17:38 36.07826 -115.13081 2067 ft 21 kts 91°
2026-05-06 17:38 36.07827 -115.12891 2061 ft 23 kts 88°
2026-05-06 17:39 36.07830 -115.12679 2050 ft 26 kts 90°
2026-05-06 17:39 36.07829 -115.12471 2047 ft 22 kts 90°
2026-05-06 17:39 36.07827 -115.12285 2048 ft 20 kts 98°
2026-05-06 17:39 36.07758 -115.12157 2040 ft 16 kts 133°
2026-05-06 17:40 36.07748 -115.12144 2040 ft 0 kts 135°
2026-05-06 17:44 36.07737 -115.12132 2040 ft 10 kts 140°
2026-05-06 17:44 36.07648 -115.12143 2042 ft 16 kts 237°
2026-05-06 17:44 36.07637 -115.12444 2049 ft 67 kts 270°
2026-05-06 17:45 36.07640 -115.13270 2073 ft 123 kts 270°
2026-05-06 17:45 36.07639 -115.14522 2110 ft 166 kts 269°
2026-05-06 17:45 36.07632 -115.16077 2267 ft 190 kts 269°
2026-05-06 17:45 36.07620 -115.17687 2932 ft 186 kts 269°
2026-05-06 17:46 36.07616 -115.19284 3399 ft 186 kts 270°
2026-05-06 17:46 36.07589 -115.20891 3745 ft 191 kts 263°
2026-05-06 17:46 36.07359 -115.22576 3880 ft 207 kts 260°
2026-05-06 17:46 36.07046 -115.24377 3991 ft 223 kts 249°
2026-05-06 17:47 36.06134 -115.26004 4114 ft 243 kts 219°
2026-05-06 17:47 36.04592 -115.26980 4401 ft 259 kts 201°
2026-05-06 17:47 36.02852 -115.27773 4737 ft 271 kts 200°
2026-05-06 17:47 36.01008 -115.28306 5075 ft 275 kts 183°
2026-05-06 17:48 35.99097 -115.28103 5394 ft 278 kts 164°
2026-05-06 17:48 35.97324 -115.27162 5720 ft 279 kts 146°
2026-05-06 17:48 35.95823 -115.25621 6293 ft 282 kts 136°
2026-05-06 17:48 35.94353 -115.23989 6960 ft 286 kts 136°
2026-05-06 17:49 35.92851 -115.22349 7584 ft 290 kts 137°
2026-05-06 17:49 35.91413 -115.20600 8224 ft 291 kts 126°
2026-05-06 17:49 35.90302 -115.18514 8887 ft 292 kts 118°
2026-05-06 17:49 35.89255 -115.16351 9576 ft 294 kts 117°
2026-05-06 17:50 35.88204 -115.14172 10232 ft 296 kts 116°
2026-05-06 17:50 35.87341 -115.11874 10775 ft 297 kts 105°
2026-05-06 17:50 35.86848 -115.09331 10921 ft 314 kts 93°
2026-05-06 17:50 35.86813 -115.06574 11054 ft 330 kts 82°
2026-05-06 17:51 35.86998 -115.03689 11340 ft 343 kts 82°
2026-05-06 17:51 35.87176 -115.00728 11844 ft 348 kts 83°
2026-05-06 17:51 35.87341 -114.97733 12438 ft 352 kts 83°
2026-05-06 17:51 35.87501 -114.94712 13026 ft 355 kts 83°
2026-05-06 17:52 35.87661 -114.91665 13613 ft 358 kts 83°
2026-05-06 17:52 35.87823 -114.88592 14160 ft 361 kts 83°
2026-05-06 17:52 35.87987 -114.85498 14704 ft 363 kts 83°
2026-05-06 17:52 35.88153 -114.82387 15251 ft 365 kts 83°
2026-05-06 17:53 35.88320 -114.79255 15794 ft 367 kts 83°
2026-05-06 17:53 35.88487 -114.76108 16341 ft 369 kts 83°
2026-05-06 17:53 35.88654 -114.72945 16868 ft 371 kts 83°
2026-05-06 17:53 35.88821 -114.69769 17406 ft 372 kts 83°
2026-05-06 17:54 35.88989 -114.66572 17924 ft 375 kts 83°
2026-05-06 17:54 35.89157 -114.63362 18412 ft 376 kts 83°
2026-05-06 17:54 35.89322 -114.60138 18832 ft 378 kts 82°
2026-05-06 17:54 35.89488 -114.56894 19228 ft 380 kts 83°
2026-05-06 17:55 35.89655 -114.53628 19614 ft 383 kts 83°
2026-05-06 17:55 35.89747 -114.51446 19867 ft 385 kts 84°
2026-05-06 17:55 35.89805 -114.47005 20408 ft 389 kts 86°
2026-05-06 17:55 35.89774 -114.43659 20801 ft 392 kts 87°
2026-05-06 17:56 35.89738 -114.41421 21056 ft 394 kts 87°
2026-05-06 17:56 35.89680 -114.38041 21468 ft 396 kts 87°
2026-05-06 17:56 35.89631 -114.34631 21873 ft 399 kts 87°
2026-05-06 17:56 35.89595 -114.31198 22246 ft 401 kts 87°
2026-05-06 17:57 35.89568 -114.27743 22621 ft 404 kts 87°
2026-05-06 17:57 35.89546 -114.24269 23011 ft 406 kts 87°
2026-05-06 17:57 35.89526 -114.20777 23396 ft 409 kts 87°
2026-05-06 17:57 35.89506 -114.17257 23729 ft 411 kts 87°
2026-05-06 17:58 35.89484 -114.13724 24053 ft 413 kts 87°
2026-05-06 17:58 35.89460 -114.10175 24376 ft 415 kts 86°
2026-05-06 17:58 35.89434 -114.06614 24726 ft 416 kts 86°
2026-05-06 17:58 35.89405 -114.03041 25046 ft 418 kts 86°
2026-05-06 17:59 35.89375 -113.99458 25371 ft 419 kts 86°
2026-05-06 17:59 35.89341 -113.95858 25664 ft 420 kts 86°
2026-05-06 17:59 35.89306 -113.92250 25980 ft 421 kts 86°
2026-05-06 17:59 35.89271 -113.88632 26301 ft 423 kts 86°
2026-05-06 18:00 35.89233 -113.85001 26611 ft 424 kts 86°
2026-05-06 18:00 35.89194 -113.81361 26928 ft 425 kts 86°
2026-05-06 18:00 35.89156 -113.77709 27231 ft 427 kts 86°
2026-05-06 18:00 35.89118 -113.74055 27541 ft 428 kts 86°
2026-05-06 18:01 35.89080 -113.70374 27891 ft 429 kts 86°
2026-05-06 18:01 35.89041 -113.66699 28145 ft 429 kts 86°
2026-05-06 18:01 35.88999 -113.63005 28409 ft 431 kts 86°
2026-05-06 18:01 35.88957 -113.59299 28721 ft 434 kts 86°
2026-05-06 18:02 35.88911 -113.55568 29028 ft 435 kts 86°
2026-05-06 18:02 35.88671 -113.51826 29247 ft 442 kts 94°
2026-05-06 18:02 35.88136 -113.48079 29479 ft 445 kts 95°
2026-05-06 18:02 35.87593 -113.44324 29747 ft 446 kts 95°
2026-05-06 18:03 35.87049 -113.40562 30074 ft 445 kts 94°
2026-05-06 18:03 35.86507 -113.36805 30387 ft 444 kts 94°
2026-05-06 18:03 35.85966 -113.33066 30729 ft 443 kts 94°
2026-05-06 18:03 35.85425 -113.29333 31054 ft 441 kts 94°
2026-05-06 18:04 35.84889 -113.25616 31362 ft 439 kts 94°
2026-05-06 18:04 35.84355 -113.21920 31711 ft 437 kts 94°
2026-05-06 18:04 35.83823 -113.18243 32058 ft 435 kts 94°
2026-05-06 18:04 35.83292 -113.14581 32377 ft 433 kts 94°
2026-05-06 18:05 35.82759 -113.10933 32694 ft 432 kts 94°
2026-05-06 18:05 35.82225 -113.07293 33010 ft 431 kts 94°
2026-05-06 18:05 35.81691 -113.03663 33300 ft 430 kts 94°
2026-05-06 18:05 35.81156 -113.00038 33598 ft 430 kts 94°
2026-05-06 18:06 35.80622 -112.96424 33901 ft 429 kts 93°
2026-05-06 18:06 35.80087 -112.92817 34165 ft 428 kts 94°
2026-05-06 18:06 35.79553 -112.89208 34380 ft 428 kts 94°
2026-05-06 18:06 35.79022 -112.85604 34585 ft 428 kts 94°
2026-05-06 18:07 35.78492 -112.81998 34762 ft 429 kts 94°
2026-05-06 18:07 35.77959 -112.78383 34944 ft 429 kts 94°
2026-05-06 18:07 35.76874 -112.71124 35036 ft 431 kts 94°
2026-05-06 18:08 35.75785 -112.63862 35035 ft 431 kts 94°
2026-05-06 18:08 35.74706 -112.56635 35041 ft 433 kts 95°
2026-05-06 18:09 35.73613 -112.49328 35040 ft 434 kts 95°
2026-05-06 18:09 35.72506 -112.42026 35039 ft 434 kts 95°
2026-05-06 18:10 35.71390 -112.34706 35021 ft 436 kts 95°
2026-05-06 18:10 35.70272 -112.27376 35023 ft 436 kts 95°
2026-05-06 18:11 35.69146 -112.20030 35016 ft 437 kts 96°
2026-05-06 18:11 35.68016 -112.12691 35043 ft 437 kts 96°
2026-05-06 18:12 35.66883 -112.05333 35013 ft 439 kts 96°
2026-05-06 18:12 35.65734 -111.97944 35015 ft 440 kts 96°
2026-05-06 18:13 35.64581 -111.90547 35004 ft 441 kts 97°
2026-05-06 18:13 35.63435 -111.83137 35016 ft 441 kts 94°
2026-05-06 18:14 35.63031 -111.75658 34997 ft 438 kts 89°
2026-05-06 18:14 35.62729 -111.68151 34992 ft 440 kts 90°
2026-05-06 18:15 35.62409 -111.60625 34991 ft 442 kts 90°
2026-05-06 18:15 35.62077 -111.53080 34982 ft 442 kts 90°
2026-05-06 18:16 35.61742 -111.45529 34997 ft 443 kts 90°
2026-05-06 18:16 35.61408 -111.38019 34982 ft 443 kts 90°
2026-05-06 18:17 35.61069 -111.30459 34973 ft 443 kts 90°
2026-05-06 18:17 35.60726 -111.22898 34970 ft 443 kts 90°
2026-05-06 18:18 35.60375 -111.15329 34980 ft 443 kts 90°
2026-05-06 18:18 35.60023 -111.07762 34968 ft 444 kts 90°
2026-05-06 18:19 35.59665 -111.00168 34963 ft 446 kts 90°
2026-05-06 18:19 35.59303 -110.92554 34949 ft 447 kts 91°
2026-05-06 18:20 35.58931 -110.84908 34958 ft 449 kts 91°
2026-05-06 18:20 35.58550 -110.77243 34971 ft 450 kts 92°
2026-05-06 18:21 35.58166 -110.69550 34969 ft 452 kts 92°
2026-05-06 18:21 35.57773 -110.61834 34971 ft 453 kts 92°
2026-05-06 18:22 35.57374 -110.54099 34973 ft 453 kts 92°
2026-05-06 18:22 35.56977 -110.46373 34991 ft 454 kts 92°
2026-05-06 18:23 35.56570 -110.38621 34973 ft 455 kts 92°
2026-05-06 18:23 35.56150 -110.30848 34973 ft 457 kts 92°
2026-05-06 18:24 35.55733 -110.23102 34982 ft 458 kts 92°
2026-05-06 18:24 35.55311 -110.15297 34981 ft 458 kts 92°
2026-05-06 18:25 35.54877 -110.07433 34983 ft 460 kts 92°
2026-05-06 18:25 35.54443 -109.99592 34971 ft 461 kts 92°
2026-05-06 18:26 35.53998 -109.91734 34966 ft 462 kts 93°
2026-05-06 18:26 35.53544 -109.83847 34968 ft 463 kts 93°
2026-05-06 18:27 35.53081 -109.75948 34974 ft 465 kts 94°
2026-05-06 18:27 35.52611 -109.68057 34969 ft 467 kts 94°
2026-05-06 18:28 35.52147 -109.60091 34972 ft 469 kts 93°
2026-05-06 18:28 35.51675 -109.52103 34982 ft 469 kts 94°
2026-05-06 18:29 35.51191 -109.44106 35014 ft 470 kts 94°
2026-05-06 18:29 35.50695 -109.36086 35014 ft 472 kts 94°
2026-05-06 18:30 35.50203 -109.28044 35041 ft 473 kts 94°
2026-05-06 18:30 35.49706 -109.19978 35065 ft 474 kts 94°
2026-05-06 18:31 35.49204 -109.11902 35102 ft 475 kts 94°
2026-05-06 18:31 35.48682 -109.03809 35082 ft 476 kts 95°
2026-05-06 18:32 35.48153 -108.95698 35093 ft 477 kts 94°
2026-05-06 18:32 35.47569 -108.87580 35099 ft 478 kts 100°
2026-05-06 18:33 35.46067 -108.79645 35108 ft 479 kts 105°
2026-05-06 18:33 35.44461 -108.71696 34945 ft 482 kts 105°
2026-05-06 18:34 35.42851 -108.63696 34945 ft 485 kts 105°
2026-05-06 18:34 35.41221 -108.55659 34943 ft 486 kts 105°
2026-05-06 18:35 35.39579 -108.47620 34954 ft 487 kts 105°
2026-05-06 18:35 35.37925 -108.39574 34955 ft 487 kts 106°
2026-05-06 18:36 35.36269 -108.31513 34949 ft 489 kts 106°
2026-05-06 18:36 35.34606 -108.23431 34973 ft 490 kts 106°
2026-05-06 18:37 35.33215 -108.16701 34992 ft 491 kts 107°
2026-05-06 18:37 35.31251 -108.07227 35046 ft 492 kts 107°
2026-05-06 18:38 35.29557 -107.99116 35086 ft 492 kts 107°
2026-05-06 18:38 35.27855 -107.91009 35119 ft 492 kts 107°
2026-05-06 18:39 35.26159 -107.82900 35128 ft 492 kts 107°
2026-05-06 18:39 35.25308 -107.78850 34948 ft 492 kts 107°
2026-05-06 18:40 35.23595 -107.70739 34955 ft 492 kts 108°
2026-05-06 18:40 35.21878 -107.62623 34949 ft 493 kts 108°
2026-05-06 18:41 35.20153 -107.54505 34899 ft 493 kts 109°
2026-05-06 18:41 35.18427 -107.46430 34901 ft 495 kts 109°
2026-05-06 18:42 35.16674 -107.38267 34914 ft 498 kts 110°
2026-05-06 18:42 35.15200 -107.31399 34899 ft 500 kts 110°
2026-05-06 18:43 35.13429 -107.23161 34901 ft 502 kts 110°
2026-05-06 18:43 35.11648 -107.14901 34898 ft 503 kts 110°
2026-05-06 18:44 35.09851 -107.06629 34900 ft 504 kts 110°
2026-05-06 18:44 35.08046 -106.98344 34904 ft 505 kts 110°
2026-05-06 18:45 35.06233 -106.90044 34907 ft 506 kts 110°
2026-05-06 18:45 35.05332 -106.85950 35049 ft 507 kts 111°
2026-05-06 18:45 35.04435 -106.81720 35050 ft 512 kts 108°
2026-05-06 18:46 35.03331 -106.73080 35056 ft 518 kts 104°
2026-05-06 18:46 35.02280 -106.64357 35062 ft 521 kts 104°
2026-05-06 18:47 35.01214 -106.55612 35068 ft 522 kts 104°
2026-05-06 18:47 35.00137 -106.46895 35057 ft 523 kts 104°
2026-05-06 18:48 34.99047 -106.38113 35030 ft 524 kts 105°
2026-05-06 18:48 34.97949 -106.29314 34989 ft 525 kts 105°
2026-05-06 18:49 34.96840 -106.20494 34956 ft 527 kts 105°
2026-05-06 18:49 34.95720 -106.11654 34961 ft 528 kts 105°
2026-05-06 18:50 34.94587 -106.02788 34961 ft 529 kts 105°
2026-05-06 18:50 34.93451 -105.93919 34952 ft 531 kts 106°
2026-05-06 18:51 34.92313 -105.85022 34957 ft 533 kts 106°
2026-05-06 18:51 34.91171 -105.76178 34953 ft 534 kts 106°
2026-05-06 18:52 34.90007 -105.67234 34956 ft 534 kts 106°
2026-05-06 18:52 34.88837 -105.58297 34938 ft 535 kts 107°
2026-05-06 18:53 34.87645 -105.49324 34917 ft 537 kts 107°
2026-05-06 18:53 34.86444 -105.40333 34934 ft 538 kts 107°
2026-05-06 18:54 34.85248 -105.31329 34916 ft 539 kts 107°
2026-05-06 18:54 34.84043 -105.22312 34905 ft 540 kts 108°
2026-05-06 18:55 34.82821 -105.13263 34881 ft 542 kts 108°
2026-05-06 18:55 34.81588 -105.04200 34875 ft 543 kts 108°
2026-05-06 18:56 34.80351 -104.95104 34934 ft 549 kts 109°
2026-05-06 18:56 34.79094 -104.85915 34943 ft 551 kts 109°
2026-05-06 18:57 34.77823 -104.76715 34967 ft 552 kts 109°
2026-05-06 18:57 34.76540 -104.67500 34972 ft 552 kts 109°
2026-05-06 18:58 34.75252 -104.58290 34961 ft 552 kts 109°
2026-05-06 18:58 34.73957 -104.49088 34938 ft 552 kts 109°
2026-05-06 18:59 34.72659 -104.39888 34906 ft 552 kts 109°
2026-05-06 18:59 34.71356 -104.30690 34866 ft 552 kts 109°
2026-05-06 19:00 34.70041 -104.21488 34856 ft 552 kts 109°
2026-05-06 19:00 34.68721 -104.12301 34852 ft 552 kts 110°
2026-05-06 19:01 34.67390 -104.03113 34860 ft 552 kts 110°
2026-05-06 19:01 34.66056 -103.93927 34872 ft 552 kts 110°
2026-05-06 19:02 34.64722 -103.84743 34883 ft 552 kts 110°
2026-05-06 19:02 34.63375 -103.75576 34905 ft 551 kts 110°
2026-05-06 19:03 34.62019 -103.66424 34908 ft 551 kts 110°
2026-05-06 19:03 34.60671 -103.57285 34929 ft 550 kts 110°
2026-05-06 19:04 34.59309 -103.48152 34946 ft 550 kts 111°
2026-05-06 19:04 34.57943 -103.39085 34940 ft 550 kts 111°
2026-05-06 19:05 34.56561 -103.29954 34977 ft 550 kts 111°
2026-05-06 19:05 34.55171 -103.20754 34978 ft 551 kts 111°
2026-05-06 19:06 34.53782 -103.11621 35013 ft 550 kts 111°
2026-05-06 19:06 34.52382 -103.02511 35017 ft 549 kts 111°
2026-05-06 19:07 34.50990 -102.93460 35030 ft 549 kts 111°
2026-05-06 19:07 34.49580 -102.84373 35040 ft 548 kts 111°
2026-05-06 19:08 34.48402 -102.75196 35038 ft 554 kts 106°
2026-05-06 19:08 34.47570 -102.65884 35031 ft 556 kts 105°
2026-05-06 19:09 34.46746 -102.56569 35034 ft 555 kts 106°
2026-05-06 19:09 34.45787 -102.47300 35041 ft 554 kts 107°
2026-05-06 19:10 34.44763 -102.38052 35031 ft 554 kts 107°
2026-05-06 19:10 34.43761 -102.28798 35036 ft 555 kts 107°
2026-05-06 19:11 34.42776 -102.19533 35034 ft 555 kts 107°
2026-05-06 19:11 34.41788 -102.10254 35041 ft 555 kts 107°
2026-05-06 19:12 34.40794 -102.00979 35039 ft 555 kts 107°
2026-05-06 19:12 34.39784 -101.91717 35029 ft 554 kts 107°
2026-05-06 19:13 34.38767 -101.82478 35054 ft 554 kts 107°
2026-05-06 19:13 34.37755 -101.73301 35074 ft 553 kts 107°
2026-05-06 19:14 34.36726 -101.64070 35073 ft 553 kts 107°
2026-05-06 19:14 34.35692 -101.54841 35080 ft 553 kts 107°
2026-05-06 19:15 34.34644 -101.45619 35085 ft 553 kts 107°
2026-05-06 19:15 34.33594 -101.36399 35086 ft 553 kts 107°
2026-05-06 19:16 34.32544 -101.27192 35075 ft 553 kts 108°
2026-05-06 19:16 34.31482 -101.17987 35074 ft 552 kts 108°
2026-05-06 19:17 34.30411 -101.08791 35074 ft 552 kts 108°
2026-05-06 19:17 34.29335 -100.99595 35087 ft 552 kts 108°
2026-05-06 19:18 34.28256 -100.90402 35085 ft 552 kts 108°
2026-05-06 19:18 34.27173 -100.81205 35088 ft 552 kts 108°
2026-05-06 19:19 34.26080 -100.72007 35038 ft 552 kts 108°
2026-05-06 19:19 34.24985 -100.62891 35067 ft 551 kts 108°
2026-05-06 19:20 34.23876 -100.53722 35066 ft 551 kts 108°
2026-05-06 19:20 34.22767 -100.44552 35074 ft 551 kts 108°
2026-05-06 19:21 34.21647 -100.35391 35082 ft 551 kts 108°
2026-05-06 19:21 34.20434 -100.26268 35086 ft 544 kts 114°
2026-05-06 19:21 34.19389 -100.21943 35088 ft 530 kts 122°
2026-05-06 19:22 34.18126 -100.17773 35076 ft 529 kts 122°
2026-05-06 19:22 34.15594 -100.09435 35072 ft 529 kts 122°
2026-05-06 19:23 34.13070 -100.01097 35075 ft 529 kts 122°
2026-05-06 19:23 34.10542 -99.92756 35065 ft 529 kts 122°
2026-05-06 19:24 34.08016 -99.84417 35019 ft 529 kts 122°
2026-05-06 19:24 34.05491 -99.76104 35038 ft 527 kts 122°
2026-05-06 19:25 34.02952 -99.67808 35047 ft 527 kts 123°
2026-05-06 19:25 34.00404 -99.59534 35054 ft 527 kts 123°
2026-05-06 19:26 33.97850 -99.51256 35053 ft 527 kts 123°
2026-05-06 19:26 33.95290 -99.42985 35040 ft 526 kts 123°
2026-05-06 19:27 33.92750 -99.34784 35036 ft 526 kts 123°
2026-05-06 19:27 33.90172 -99.26529 35039 ft 526 kts 123°
2026-05-06 19:28 33.87591 -99.18293 35046 ft 526 kts 123°
2026-05-06 19:28 33.85007 -99.10065 35019 ft 525 kts 123°
2026-05-06 19:29 33.82858 -99.03231 35045 ft 525 kts 123°
2026-05-06 19:29 33.80278 -98.95021 35049 ft 524 kts 123°
2026-05-06 19:29 33.78983 -98.90915 34513 ft 528 kts 123°
2026-05-06 19:30 33.77672 -98.86784 33664 ft 526 kts 123°
2026-05-06 19:30 33.76376 -98.82687 32263 ft 526 kts 122°
2026-05-06 19:30 33.75080 -98.78589 31307 ft 518 kts 122°
2026-05-06 19:30 33.73849 -98.74633 31022 ft 493 kts 122°
2026-05-06 19:31 33.72655 -98.70804 30623 ft 485 kts 122°
2026-05-06 19:31 33.71465 -98.67033 30169 ft 482 kts 123°
2026-05-06 19:31 33.69074 -98.59569 29151 ft 475 kts 122°
2026-05-06 19:32 33.67895 -98.55872 28695 ft 471 kts 122°
2026-05-06 19:32 33.66729 -98.52208 28227 ft 468 kts 122°
2026-05-06 19:32 33.65574 -98.48578 27733 ft 464 kts 122°
2026-05-06 19:32 33.64434 -98.44986 27333 ft 458 kts 121°
2026-05-06 19:33 33.63299 -98.41433 26889 ft 455 kts 122°
2026-05-06 19:33 33.62165 -98.37909 26467 ft 451 kts 121°
2026-05-06 19:33 33.61040 -98.34416 26036 ft 447 kts 121°
2026-05-06 19:33 33.59926 -98.30947 25635 ft 443 kts 121°
2026-05-06 19:34 33.58826 -98.27518 25228 ft 439 kts 121°
2026-05-06 19:34 33.57734 -98.24116 24829 ft 435 kts 121°
2026-05-06 19:34 33.56647 -98.20740 24440 ft 432 kts 121°
2026-05-06 19:34 33.55570 -98.17392 24122 ft 430 kts 120°
2026-05-06 19:35 33.54471 -98.13995 23956 ft 440 kts 120°
2026-05-06 19:35 33.53357 -98.10561 23394 ft 443 kts 120°
2026-05-06 19:35 33.52243 -98.07123 22758 ft 443 kts 120°
2026-05-06 19:35 33.51145 -98.03718 22364 ft 437 kts 120°
2026-05-06 19:36 33.50062 -98.00343 21950 ft 432 kts 120°
2026-05-06 19:36 33.48990 -97.97006 21535 ft 427 kts 120°
2026-05-06 19:36 33.48182 -97.94497 21221 ft 423 kts 120°
2026-05-06 19:36 33.47112 -97.91190 20799 ft 419 kts 120°
2026-05-06 19:37 33.46099 -97.88054 20398 ft 417 kts 120°
2026-05-06 19:37 33.45059 -97.84826 19992 ft 415 kts 120°
2026-05-06 19:37 33.44018 -97.81607 19548 ft 413 kts 120°
2026-05-06 19:37 33.42981 -97.78402 19127 ft 411 kts 120°
2026-05-06 19:38 33.42148 -97.75821 18785 ft 409 kts 120°
2026-05-06 19:38 33.41125 -97.72651 18373 ft 408 kts 120°
2026-05-06 19:38 33.40105 -97.69489 17870 ft 407 kts 120°
2026-05-06 19:38 33.39018 -97.66400 17466 ft 397 kts 126°
2026-05-06 19:39 33.37611 -97.63634 17059 ft 382 kts 136°
2026-05-06 19:39 33.35932 -97.61262 16664 ft 367 kts 145°
2026-05-06 19:39 33.34121 -97.59139 16310 ft 362 kts 146°
2026-05-06 19:39 33.32332 -97.57043 15934 ft 358 kts 146°
2026-05-06 19:40 33.30569 -97.54967 15568 ft 354 kts 145°
2026-05-06 19:40 33.28821 -97.52906 15200 ft 351 kts 145°
2026-05-06 19:40 33.27090 -97.50866 14827 ft 349 kts 144°
2026-05-06 19:40 33.25360 -97.48838 14370 ft 349 kts 144°
2026-05-06 19:41 33.23628 -97.46813 13965 ft 346 kts 144°
2026-05-06 19:41 33.21929 -97.44823 13465 ft 340 kts 143°
2026-05-06 19:41 33.20243 -97.42848 13039 ft 338 kts 143°
2026-05-06 19:41 33.18571 -97.40893 12610 ft 336 kts 143°
2026-05-06 19:42 33.16917 -97.38962 12201 ft 326 kts 142°
2026-05-06 19:42 33.15358 -97.37128 12039 ft 304 kts 143°
2026-05-06 19:42 33.13872 -97.35379 11974 ft 298 kts 143°
2026-05-06 19:42 33.12382 -97.33643 11998 ft 298 kts 143°
2026-05-06 19:43 33.10895 -97.31922 11991 ft 298 kts 143°
2026-05-06 19:43 33.09412 -97.30202 11998 ft 298 kts 143°
2026-05-06 19:43 33.07932 -97.28480 11985 ft 298 kts 143°
2026-05-06 19:43 33.06450 -97.26753 11986 ft 298 kts 143°
2026-05-06 19:44 33.04969 -97.25031 11982 ft 297 kts 143°
2026-05-06 19:44 33.03490 -97.23308 11995 ft 298 kts 143°
2026-05-06 19:44 33.02010 -97.21585 12001 ft 298 kts 143°
2026-05-06 19:44 33.00517 -97.19848 11995 ft 300 kts 142°
2026-05-06 19:45 32.99064 -97.18143 11990 ft 287 kts 144°
2026-05-06 19:45 32.97527 -97.16772 12004 ft 269 kts 159°
2026-05-06 19:45 32.95825 -97.16064 11992 ft 253 kts 176°
2026-05-06 19:45 32.94130 -97.15701 11993 ft 251 kts 178°
2026-05-06 19:46 32.92401 -97.15444 11999 ft 250 kts 182°
2026-05-06 19:46 32.90671 -97.15330 11991 ft 246 kts 189°
2026-05-06 19:46 32.88963 -97.15425 11996 ft 246 kts 189°
2026-05-06 19:46 32.87250 -97.15546 11948 ft 247 kts 190°
2026-05-06 19:47 32.85545 -97.15669 11685 ft 244 kts 189°
2026-05-06 19:47 32.83847 -97.15788 11438 ft 244 kts 189°
2026-05-06 19:47 32.82153 -97.15908 11189 ft 244 kts 189°
2026-05-06 19:47 32.80461 -97.16033 10951 ft 243 kts 189°
2026-05-06 19:48 32.78766 -97.16122 10729 ft 244 kts 186°
2026-05-06 19:48 32.77070 -97.16137 10509 ft 244 kts 185°
2026-05-06 19:48 32.75358 -97.16128 10269 ft 247 kts 184°
2026-05-06 19:48 32.73631 -97.16111 9959 ft 250 kts 184°
2026-05-06 19:49 32.71896 -97.16096 9602 ft 247 kts 184°
2026-05-06 19:49 32.70205 -97.16087 9285 ft 241 kts 184°
2026-05-06 19:49 32.68538 -97.16082 8975 ft 238 kts 184°
2026-05-06 19:49 32.66888 -97.16077 8651 ft 237 kts 185°
2026-05-06 19:50 32.65239 -97.16072 8348 ft 237 kts 185°
2026-05-06 19:50 32.63593 -97.16070 8025 ft 236 kts 185°
2026-05-06 19:50 32.61951 -97.16070 7707 ft 234 kts 185°
2026-05-06 19:50 32.60340 -97.16054 7388 ft 230 kts 182°
2026-05-06 19:51 32.58751 -97.15945 7086 ft 228 kts 181°
2026-05-06 19:51 32.57183 -97.15655 6772 ft 231 kts 161°
2026-05-06 19:51 32.55899 -97.14492 6463 ft 239 kts 128°
2026-05-06 19:51 32.55244 -97.12665 6132 ft 245 kts 103°
2026-05-06 19:52 32.55174 -97.10644 5819 ft 247 kts 82°
2026-05-06 19:52 32.55692 -97.08720 5502 ft 244 kts 59°
2026-05-06 19:52 32.56717 -97.07143 5190 ft 241 kts 39°
2026-05-06 19:52 32.58088 -97.06082 4748 ft 233 kts 18°
2026-05-06 19:53 32.59619 -97.05639 4203 ft 221 kts 359°
2026-05-06 19:53 32.61132 -97.05621 3660 ft 213 kts 359°
2026-05-06 19:53 32.62596 -97.05614 3138 ft 207 kts
2026-05-06 19:53 32.63997 -97.05606 3013 ft 192 kts
2026-05-06 19:54 32.65260 -97.05599 2992 ft 172 kts 359°
2026-05-06 19:54 32.66421 -97.05593 2997 ft 164 kts
2026-05-06 19:54 32.67554 -97.05588 2995 ft 161 kts
2026-05-06 19:54 32.68671 -97.05582 3000 ft 162 kts
2026-05-06 19:55 32.69819 -97.05576 2802 ft 166 kts
2026-05-06 19:55 32.71035 -97.05568 3006 ft 182 kts
2026-05-06 19:55 32.72237 -97.05559 4065 ft 156 kts 357°
2026-05-06 19:55 32.73357 -97.05553 4316 ft 184 kts 355°
2026-05-06 19:56 32.74689 -97.05571 4953 ft 175 kts 353°
2026-05-06 19:56 32.75867 -97.05579 5935 ft 169 kts 353°
2026-05-06 19:56 32.77122 -97.05564 6270 ft 192 kts 355°
2026-05-06 19:56 32.78457 -97.05477 6932 ft 185 kts 359°
2026-05-06 19:57 32.79691 -97.05303 7702 ft 175 kts
2026-05-06 19:57 32.80966 -97.05079 7928 ft 199 kts 350°
2026-05-06 19:57 32.82319 -97.05509 8227 ft 198 kts 327°
2026-05-06 19:57 32.83619 -97.06350 8516 ft 227 kts 317°
2026-05-06 19:58 32.84739 -97.07746 8654 ft 254 kts 303°
2026-05-06 19:58 32.85903 -97.09509 8634 ft 269 kts 303°
2026-05-06 19:58 32.86980 -97.11203 8480 ft 250 kts 303°
2026-05-06 19:58 32.88031 -97.12841 8033 ft 242 kts 302°
2026-05-06 19:59 32.89034 -97.14400 7473 ft 240 kts 302°
2026-05-06 19:59 32.90057 -97.15988 6918 ft 238 kts 302°
2026-05-06 19:59 32.91063 -97.17539 6363 ft 237 kts 305°
2026-05-06 19:59 32.92201 -97.18959 5804 ft 237 kts 312°
2026-05-06 20:00 32.93409 -97.20287 5315 ft 235 kts 314°
2026-05-06 20:00 32.94620 -97.21572 4819 ft 232 kts 315°
2026-05-06 20:00 32.95823 -97.22837 4298 ft 229 kts 318°
2026-05-06 20:00 32.96884 -97.24229 3770 ft 228 kts 301°
2026-05-06 20:01 32.97336 -97.26041 3215 ft 234 kts 272°
2026-05-06 20:01 32.96934 -97.27902 3213 ft 237 kts 238°
2026-05-06 20:01 32.95837 -97.29256 3768 ft 235 kts 219°
2026-05-06 20:01 32.94315 -97.30086 2905 ft 250 kts 179°
2026-05-06 20:02 32.92694 -97.29646 2958 ft 240 kts 149°
2026-05-06 20:02 32.91256 -97.28686 2979 ft 243 kts 155°
2026-05-06 20:02 32.89590 -97.28285 2990 ft 248 kts 173°
2026-05-06 20:02 32.87854 -97.28155 2992 ft 248 kts 175°
2026-05-06 20:03 32.86147 -97.28056 2984 ft 244 kts 175°
2026-05-06 20:03 32.84438 -97.27962 2988 ft 246 kts 176°
2026-05-06 20:03 32.82765 -97.27879 2992 ft 238 kts 176°
2026-05-06 20:03 32.81108 -97.27794 2988 ft 234 kts 176°
2026-05-06 20:04 32.79501 -97.27707 2983 ft 233 kts 176°
2026-05-06 20:04 32.77866 -97.27612 2989 ft 232 kts 176°
2026-05-06 20:04 32.76255 -97.27520 2984 ft 235 kts 175°
2026-05-06 20:04 32.74632 -97.27446 2995 ft 234 kts 176°
2026-05-06 20:05 32.72998 -97.27366 2985 ft 235 kts 176°
2026-05-06 20:05 32.71379 -97.27273 2976 ft 233 kts 174°
2026-05-06 20:05 32.69755 -97.27189 2992 ft 234 kts 175°
2026-05-06 20:05 32.68121 -97.27109 2998 ft 236 kts 175°
2026-05-06 20:06 32.66492 -97.26947 3003 ft 235 kts 163°
2026-05-06 20:06 32.65034 -97.26137 3009 ft 230 kts 148°
2026-05-06 20:06 32.63804 -97.24996 3004 ft 217 kts 125°
2026-05-06 20:06 32.63161 -97.23515 2992 ft 192 kts 99°
2026-05-06 20:07 32.63081 -97.22012 2988 ft 177 kts 78°
2026-05-06 20:07 32.63220 -97.20577 2990 ft 173 kts 79°
2026-05-06 20:07 32.63353 -97.19139 3002 ft 178 kts 80°
2026-05-06 20:07 32.63488 -97.17680 3001 ft 178 kts 79°
2026-05-06 20:08 32.63620 -97.16217 3001 ft 179 kts 78°
2026-05-06 20:08 32.63753 -97.14753 3004 ft 178 kts 81°
2026-05-06 20:08 32.63884 -97.13300 2994 ft 177 kts 79°
2026-05-06 20:08 32.64018 -97.11845 2997 ft 178 kts 79°
2026-05-06 20:09 32.64150 -97.10406 2996 ft 175 kts 80°
2026-05-06 20:09 32.64279 -97.08968 2994 ft 176 kts 81°
2026-05-06 20:09 32.64364 -97.07517 2976 ft 177 kts 82°
2026-05-06 20:09 32.64405 -97.06067 3195 ft 174 kts 76°
2026-05-06 20:10 32.64890 -97.04769 3203 ft 177 kts 39°
2026-05-06 20:10 32.66024 -97.04262 2497 ft 187 kts 356°
2026-05-06 20:10 32.67347 -97.04484 1958 ft 192 kts 353°
2026-05-06 20:10 32.68631 -97.04723 1627 ft 182 kts 351°
2026-05-06 20:11 32.69840 -97.04965 1395 ft 170 kts 350°
2026-05-06 20:11 32.70951 -97.05263 1297 ft 161 kts 350°
2026-05-06 20:11 32.72050 -97.05442 1301 ft 157 kts 357°
2026-05-06 20:11 32.73160 -97.05506 1346 ft 159 kts 359°
2026-05-06 20:12 32.73902 -97.05503 1618 ft 156 kts
2026-05-06 20:12 32.74918 -97.05435 2312 ft 139 kts
2026-05-06 20:12 32.75988 -97.05277 2596 ft 176 kts 10°
2026-05-06 20:12 32.77162 -97.05019 3149 ft 171 kts
2026-05-06 20:13 32.78361 -97.04943 2669 ft 178 kts 342°
2026-05-06 20:13 32.79528 -97.05461 2222 ft 180 kts 347°
2026-05-06 20:13 32.80763 -97.05596 1851 ft 176 kts
2026-05-06 20:13 32.81960 -97.05543 1605 ft 168 kts
2026-05-06 20:14 32.83105 -97.05495 1383 ft 161 kts
2026-05-06 20:14 32.84225 -97.05455 1108 ft 164 kts
2026-05-06 20:14 32.85343 -97.05465 1065 ft 159 kts 359°
2026-05-06 20:14 32.86432 -97.05500 942 ft 155 kts 359°
2026-05-06 20:15 32.87560 -97.05490 736 ft 172 kts
2026-05-06 20:15 32.88783 -97.05472 912 ft 180 kts 359°
2026-05-06 20:15 32.90000 -97.05471 895 ft 167 kts 357°
2026-05-06 20:15 32.91165 -97.05600 1299 ft 180 kts 354°
2026-05-06 20:16 32.92509 -97.05758 1911 ft 219 kts 355°
2026-05-06 20:16 32.94179 -97.05940 2050 ft 257 kts 356°
2026-05-06 20:16 32.95918 -97.06134 2046 ft 243 kts 355°
2026-05-06 20:16 32.97492 -97.06318 2414 ft 212 kts 356°
2026-05-06 20:17 32.98981 -97.06524 2874 ft 221 kts 356°
2026-05-06 20:17 33.00516 -97.06736 2965 ft 223 kts 357°
2026-05-06 20:17 33.02058 -97.06953 2971 ft 222 kts 355°
2026-05-06 20:17 33.03595 -97.07159 2970 ft 222 kts 355°
2026-05-06 20:18 33.05138 -97.07358 2987 ft 222 kts 355°
2026-05-06 20:18 33.06671 -97.07568 2996 ft 221 kts 353°
2026-05-06 20:18 33.08080 -97.08296 2995 ft 227 kts 322°
2026-05-06 20:18 33.08998 -97.09845 3004 ft 233 kts 297°
2026-05-06 20:19 33.09637 -97.11631 3003 ft 235 kts 295°
2026-05-06 20:19 33.10214 -97.13458 3008 ft 235 kts 294°
2026-05-06 20:19 33.10773 -97.15266 3008 ft 236 kts 293°
2026-05-06 20:19 33.11341 -97.17095 3010 ft 234 kts 294°
2026-05-06 20:20 33.11916 -97.18906 3010 ft 234 kts 294°
2026-05-06 20:20 33.12493 -97.20719 3013 ft 234 kts 294°
2026-05-06 20:20 33.13067 -97.22566 3011 ft 234 kts 294°
2026-05-06 20:20 33.13634 -97.24363 3013 ft 234 kts 294°
2026-05-06 20:21 33.14200 -97.26183 3009 ft 234 kts 294°
2026-05-06 20:21 33.14764 -97.28007 3013 ft 234 kts 294°
2026-05-06 20:21 33.15308 -97.29836 3006 ft 235 kts 288°
2026-05-06 20:21 33.15426 -97.31794 3010 ft 240 kts 272°
2026-05-06 20:22 33.15518 -97.33768 2999 ft 237 kts 282°
2026-05-06 20:22 33.16089 -97.35572 3003 ft 232 kts 304°
2026-05-06 20:22 33.16918 -97.37231 3001 ft 233 kts 304°
2026-05-06 20:22 33.17750 -97.38897 2999 ft 233 kts 304°
2026-05-06 20:23 33.18578 -97.40557 2999 ft 233 kts 304°
2026-05-06 20:23 33.19401 -97.42214 2999 ft 231 kts 303°
2026-05-06 20:23 33.20219 -97.43863 2997 ft 230 kts 303°
2026-05-06 20:23 33.21034 -97.45508 2994 ft 230 kts 304°
2026-05-06 20:24 33.21849 -97.47153 2991 ft 230 kts 304°
2026-05-06 20:24 33.22663 -97.48796 2994 ft 230 kts 303°